KCIKMI Weather Reports


Display with metric or nautical units.
time (UTC)temp
F
wind
direction
speed
MPH
gust
MPH
rain 1hr
in
rain 24hr
in
rain mn
in
humidity
%
barometer
mb
20260906070026 62 5 0.0 2.0 0.00 0.01 0.01 93 1010.7
20260906064527 62 6 0.0 1.0 0.00 0.01 0.01 93 1010.7
20260906063023 63 9 0.0 0.0 0.00 0.01 0.01 93 1010.7
20260906061521 63 6 0.0 0.0 0.01 0.01 0.01 93 1010.6
20260906060020 63 6 0.0 0.0 0.01 0.01 0.01 92 1010.8
20260906054518 63 5 0.0 1.0 0.01 0.01 0.01 91 1010.7
20260906053017 64 12 0.0 1.0 0.01 0.01 0.01 91 1011.0
20260906051517 64 1 0.0 1.0 0.00 0.00 0.00 89 1011.1
20260906050016 64 5 0.0 2.0 0.00 0.00 0.00 89 1011.2
20260906044512 64 11 0.0 1.0 0.00 0.00 0.00 89 1011.1
20260906043012 64 8 0.0 1.0 0.00 0.00 0.00 88 1011.0
20260906041510 65 360 0.0 2.0 0.00 0.00 0.00 88 1011.0
20260906040014 65 356 0.0 1.0 0.00 0.00 0.00 88 1011.0
20260906034505 65 356 0.0 0.0 0.00 0.00 0.00 88 1010.8
20260906033003 65 356 0.0 1.0 0.00 0.00 0.00 87 1010.6
20260906031503 65 356 0.0 1.0 0.00 0.00 0.00 86 1010.6
20260906030004 65 356 0.0 0.0 0.00 0.00 0.00 86 1010.7
20260906024502 65 356 0.0 0.0 0.00 0.00 0.00 85 1010.6
20260906023002 65 356 0.0 0.0 0.00 0.00 0.00 85 1010.6
20260906021500 66 356 0.0 1.0 0.00 0.00 0.00 84 1010.7
20260906020000 66 356 0.0 3.0 0.00 0.00 0.00 82 1010.6
20260906014600 66 3 0.0 1.0 0.00 0.00 0.00 82 1010.7
20260906013100 66 3 0.0 2.0 0.00 0.00 0.00 82 1010.6
20260906011609 66 3 1.0 3.0 0.00 0.00 0.00 81 1010.8
20260906010057 66 346 0.0 1.0 0.00 0.00 0.00 81 1010.6
20260906004600 66 344 0.0 1.0 0.00 0.00 0.00 82 1010.4
20260906003056 66 176 0.0 0.0 0.00 0.00 0.00 81 1010.4
20260906001553 67 176 0.0 0.0 0.00 0.00 0.00 81 1010.1
20260906000059 67 261 0.0 0.0 0.00 0.00 0.00 81 1010.0
20260905234549 67 345 0.0 1.0 0.00 0.00 0.00 80 1009.8
20260905233053 67 284 0.0 0.0 0.00 0.00 0.00 80 1009.7
20260905231550 68 359 0.0 2.0 0.00 0.00 0.00 79 1009.7
20260905230047 68 338 0.0 1.0 0.00 0.00 0.00 78 1009.6
20260905224548 69 18 0.0 0.0 0.00 0.00 0.00 78 1009.6
20260905223046 69 350 0.0 3.0 0.00 0.00 0.00 77 1009.5
20260905221559 70 292 0.0 3.0 0.00 0.00 0.00 76 1009.4
20260905220043 70 360 0.0 3.0 0.00 0.00 0.00 77 1009.2
20260905214540 71 1 0.0 1.0 0.00 0.00 0.00 77 1008.9
20260905213038 71 354 0.0 3.0 0.00 0.00 0.00 75 1008.6
20260905211537 72 338 2.0 4.0 0.00 0.00 0.00 74 1008.5
20260905210036 73 355 2.0 4.0 0.00 0.00 0.00 73 1008.4
20260905204538 73 358 1.0 4.0 0.00 0.00 0.00 73 1008.2
20260905203035 73 321 0.0 5.0 0.00 0.00 0.00 73 1008.1
20260905201536 73 323 1.0 3.0 0.00 0.00 0.00 72 1007.9
20260905200038 73 332 0.0 4.0 0.00 0.00 0.00 74 1007.9
20260905194533 73 341 1.0 5.0 0.00 0.00 0.00 73 1007.9
20260905193040 74 336 0.0 7.0 0.00 0.00 0.00 71 1008.0
20260905191532 74 16 1.0 4.0 0.00 0.00 0.00 73 1007.9
20260905190041 73 21 0.0 5.0 0.00 0.00 0.00 73 1008.0
20260905184534 73 212 0.0 3.0 0.00 0.00 0.00 75 1008.0
20260905183031 72 348 0.0 4.0 0.00 0.00 0.00 75 1008.1
20260905181533 72 351 2.0 5.0 0.00 0.00 0.00 75 1008.3
20260905180039 72 338 2.0 5.0 0.00 0.00 0.00 74 1008.2
20260905174527 73 356 0.0 3.0 0.00 0.00 0.00 74 1008.1
20260905173026 72 328 0.0 5.0 0.00 0.00 0.00 74 1008.0
20260905171535 74 5 0.0 3.0 0.00 0.00 0.00 73 1007.8
20260905170024 74 342 3.0 7.0 0.00 0.00 0.00 72 1007.6
20260905164523 74 24 2.0 6.0 0.00 0.00 0.00 72 1007.5
20260905163022 74 350 1.0 5.0 0.00 0.00 0.00 70 1007.5
20260905161525 74 344 1.0 4.0 0.00 0.00 0.00 72 1007.5
20260905160034 76 346 3.0 7.0 0.00 0.00 0.00 69 1007.3
20260905154520 76 312 2.0 6.0 0.00 0.00 0.00 69 1007.3
20260905153019 75 11 2.0 9.0 0.00 0.00 0.00 69 1007.3
20260905151514 75 3 3.0 9.0 0.00 0.00 0.00 71 1007.2
20260905150011 75 353 0.0 6.0 0.00 0.00 0.00 71 1007.2
20260905144513 74 4 1.0 5.0 0.00 0.00 0.00 72 1007.2
20260905143006 73 57 2.0 5.0 0.00 0.00 0.00 72 1007.3
20260905141510 73 359 0.0 7.0 0.00 0.00 0.00 72 1007.4
20260905140002 72 3 3.0 6.0 0.00 0.00 0.00 73 1007.4
20260905134604 72 353 3.0 6.0 0.00 0.00 0.00 73 1007.4
20260905133059 71 356 3.0 8.0 0.00 0.00 0.00 74 1007.4
20260905131555 71 13 3.0 9.0 0.00 0.00 0.00 75 1007.6
20260905130055 70 16 4.0 9.0 0.00 0.00 0.00 76 1007.7
20260905124555 70 8 2.0 8.0 0.00 0.00 0.00 77 1007.5
20260905123049 69 351 0.0 4.0 0.00 0.00 0.00 78 1007.4
20260905121549 68 5 1.0 5.0 0.00 0.00 0.00 79 1007.2
20260905120058 68 8 1.0 6.0 0.00 0.00 0.00 80 1007.1
20260905114559 67 9 0.0 3.0 0.00 0.00 0.00 82 1007.3
20260905113055 66 5 1.0 4.0 0.00 0.00 0.00 83 1007.1
20260905111632 65 5 0.0 4.0 0.00 0.00 0.00 85 1007.1
20260905110043 64 358 0.0 1.0 0.00 0.00 0.00 87 1006.9
20260905104542 64 5 0.0 0.0 0.00 0.00 0.00 87 1006.8
20260905103040 64 5 0.0 0.0 0.00 0.00 0.00 86 1006.6
20260905101539 65 5 0.0 1.0 0.00 0.00 0.00 84 1006.5
20260905100035 65 12 0.0 2.0 0.00 0.00 0.00 85 1006.4
20260905094531 65 8 0.0 2.0 0.00 0.00 0.00 84 1006.4
20260905093029 64 5 0.0 1.0 0.00 0.00 0.00 85 1006.4
20260905091526 65 5 0.0 0.0 0.00 0.00 0.00 85 1006.3
20260905090025 65 5 0.0 0.0 0.00 0.00 0.00 84 1006.2
20260905084524 66 5 0.0 2.0 0.00 0.00 0.00 82 1006.3
20260905083024 66 8 0.0 2.0 0.00 0.00 0.00 83 1006.3
20260905081523 65 355 0.0 1.0 0.00 0.00 0.00 85 1006.3
20260905080030 65 8 0.0 0.0 0.00 0.00 0.00 85 1006.3
20260905074522 65 8 0.0 2.0 0.00 0.00 0.00 86 1006.3
20260905073028 65 169 0.0 0.0 0.00 0.00 0.00 86 1006.5
20260905071520 65 169 0.0 0.0 0.00 0.00 0.00 86 1006.5